When you browse on this site, cookies collect data to enhance your experience and personalize the content and advertising you see.
Visit our Privacy Policy to learn more. By continuing to use the site, you agree to this use of cookies and data.
  • In France
  • List of Countries
  • For 7 days
  • Water Temperature
  • Weather Map
  • Weather Widgets
  • user-avatar
    Login

    Hourly Weather Arteaga

    Today, 19 September, Thursday

    Time Temperature Precipitation Wind Pressure Humidity
    00:00 +19°C° 0.1 mm 1 mps 661 mmHg 98%
    01:00 +19°C° 0.1 mm 1 mps 660 mmHg 98%
    02:00 +19°C° 0.1 mm 1 mps 660 mmHg 97%
    03:00 +17°C° 0.6 mm 0 mps 660 mmHg 97%
    04:00 +17°C° 0.6 mm 0 mps 660 mmHg 97%
    05:00 +17°C° 0.6 mm 0 mps 660 mmHg 98%
    06:00 +17°C° 2.5 mm 0 mps 660 mmHg 98%
    07:00 +17°C° 2.5 mm 0 mps 661 mmHg 98%
    08:00 +17°C° 2.5 mm 0 mps 661 mmHg 98%
    09:00 +18°C° 1.9 mm 0 mps 661 mmHg 97%
    10:00 +18°C° 1.9 mm 0 mps 661 mmHg 95%
    11:00 +19°C° 1.9 mm 0 mps 661 mmHg 94%
    12:00 +22°C° 0.2 mm 1 mps 661 mmHg 88%
    13:00 +24°C° 0.2 mm 1 mps 661 mmHg 81%
    14:00 +25°C° 0.2 mm 1 mps 660 mmHg 75%
    15:00 +24°C° 0.5 mm 1 mps 660 mmHg 81%
    16:00 +23°C° 0.5 mm 1 mps 660 mmHg 87%
    17:00 +20°C° 0.5 mm 0 mps 659 mmHg 93%
    18:00 +19°C° 0.3 mm 0 mps 659 mmHg 94%
    19:00 +18°C° 0.3 mm 0 mps 660 mmHg 96%
    20:00 +18°C° 0.3 mm 0 mps 660 mmHg 97%
    21:00 +17°C° 0 mm 0 mps 660 mmHg 96%
    22:00 +17°C° 0 mm 0 mps 660 mmHg 96%
    23:00 +17°C° 0 mm 0 mps 660 mmHg 96%

    Tomorrow, 20 September, Friday

    Time Temperature Precipitation Wind Pressure Humidity
    00:00 +17°C° 0 mm 0 mps 659 mmHg 96%
    01:00 +19°C° 0 mm 1 mps 659 mmHg 96%
    02:00 +19°C° 0 mm 1 mps 659 mmHg 96%
    03:00 +19°C° 0 mm 1 mps 659 mmHg 96%
    04:00 +17°C° 0 mm 0 mps 658 mmHg 96%
    05:00 +17°C° 0 mm 0 mps 658 mmHg 96%
    06:00 +18°C° 0 mm 0 mps 659 mmHg 93%
    07:00 +19°C° 0 mm 0 mps 659 mmHg 91%
    08:00 +22°C° 0 mm 1 mps 660 mmHg 88%
    09:00 +24°C° 0.2 mm 1 mps 660 mmHg 84%
    10:00 +25°C° 0.2 mm 1 mps 661 mmHg 79%
    11:00 +26°C° 0.2 mm 1 mps 661 mmHg 75%
    12:00 +26°C° 1.4 mm 1 mps 660 mmHg 77%
    13:00 +26°C° 1.4 mm 1 mps 660 mmHg 79%
    14:00 +26°C° 1.4 mm 1 mps 659 mmHg 82%
    15:00 +25°C° 1.1 mm 1 mps 659 mmHg 85%
    16:00 +24°C° 1.1 mm 1 mps 659 mmHg 89%
    17:00 +23°C° 1.1 mm 1 mps 659 mmHg 93%
    18:00 +23°C° 0.9 mm 1 mps 659 mmHg 94%
    19:00 +22°C° 0.9 mm 1 mps 659 mmHg 96%
    20:00 +21°C° 0.9 mm 1 mps 660 mmHg 98%
    21:00 +21°C° 0.3 mm 1 mps 660 mmHg 98%
    22:00 +20°C° 0.3 mm 1 mps 660 mmHg 97%
    23:00 +18°C° 0.3 mm 0 mps 660 mmHg 97%

    Day after tomorrow, 21 September, Saturday

    Time Temperature Precipitation Wind Pressure Humidity
    00:00 +18°C° 0 mm 0 mps 660 mmHg 97%
    01:00 +17°C° 0 mm 0 mps 659 mmHg 97%
    02:00 +17°C° 0 mm 0 mps 659 mmHg 97%
    03:00 +17°C° 0 mm 0 mps 659 mmHg 96%
    04:00 +17°C° 0 mm 0 mps 659 mmHg 96%
    05:00 +19°C° 0 mm 1 mps 659 mmHg 96%
    06:00 +20°C° 0 mm 1 mps 660 mmHg 94%
    07:00 +20°C° 0 mm 0 mps 660 mmHg 91%
    08:00 +21°C° 0 mm 0 mps 661 mmHg 89%
    09:00 +24°C° 0.1 mm 1 mps 661 mmHg 83%
    10:00 +26°C° 0.1 mm 1 mps 661 mmHg 78%
    11:00 +27°C° 0.1 mm 1 mps 661 mmHg 72%
    12:00 +27°C° 0.6 mm 1 mps 661 mmHg 74%
    13:00 +27°C° 0.6 mm 1 mps 660 mmHg 76%
    14:00 +26°C° 0.6 mm 1 mps 660 mmHg 78%
    15:00 +26°C° 0.3 mm 1 mps 659 mmHg 82%
    16:00 +25°C° 0.3 mm 1 mps 659 mmHg 87%
    17:00 +24°C° 0.3 mm 1 mps 659 mmHg 91%
    18:00 +23°C° 0.3 mm 1 mps 659 mmHg 93%
    19:00 +22°C° 0.3 mm 1 mps 659 mmHg 94%
    20:00 +21°C° 0.3 mm 1 mps 659 mmHg 96%
    21:00 +20°C° 0.2 mm 1 mps 659 mmHg 95%
    22:00 +18°C° 0.2 mm 0 mps 660 mmHg 95%
    23:00 +18°C° 0.2 mm 0 mps 660 mmHg 94%

    22 September, Sunday

    Time Temperature Precipitation Wind Pressure Humidity
    00:00 +18°C° 0.4 mm 0 mps 659 mmHg 94%
    01:00 +19°C° 0.4 mm 1 mps 659 mmHg 94%
    02:00 +19°C° 0.4 mm 1 mps 659 mmHg 95%
    03:00 +17°C° 0 mm 0 mps 659 mmHg 94%
    04:00 +17°C° 0 mm 0 mps 659 mmHg 94%
    05:00 +17°C° 0 mm 0 mps 659 mmHg 94%
    06:00 +18°C° 0 mm 0 mps 660 mmHg 91%
    07:00 +20°C° 0 mm 0 mps 660 mmHg 89%
    08:00 +21°C° 0 mm 0 mps 661 mmHg 86%
    09:00 +25°C° 0.1 mm 1 mps 661 mmHg 80%
    10:00 +26°C° 0.1 mm 1 mps 661 mmHg 74%
    11:00 +28°C° 0.1 mm 1 mps 662 mmHg 67%
    12:00 +28°C° 0.9 mm 1 mps 661 mmHg 71%
    13:00 +27°C° 0.9 mm 1 mps 660 mmHg 74%
    14:00 +27°C° 0.9 mm 1 mps 660 mmHg 78%
    15:00 +26°C° 0.5 mm 1 mps 659 mmHg 82%
    16:00 +25°C° 0.5 mm 1 mps 659 mmHg 87%
    17:00 +24°C° 0.5 mm 1 mps 659 mmHg 92%
    18:00 +23°C° 0.3 mm 1 mps 659 mmHg 94%
    19:00 +22°C° 0.3 mm 1 mps 659 mmHg 95%
    20:00 +21°C° 0.3 mm 1 mps 659 mmHg 97%
    21:00 +21°C° 0.1 mm 1 mps 660 mmHg 97%
    22:00 +20°C° 0.1 mm 1 mps 660 mmHg 97%
    23:00 +20°C° 0.1 mm 1 mps 660 mmHg 97%

    23 September, Monday

    Time Temperature Precipitation Wind Pressure Humidity
    00:00 +20°C° 0.2 mm 1 mps 660 mmHg 97%
    01:00 +19°C° 0.2 mm 1 mps 659 mmHg 96%
    02:00 +17°C° 0.2 mm 0 mps 659 mmHg 96%
    03:00 +17°C° 0.1 mm 0 mps 659 mmHg 95%
    04:00 +17°C° 0.1 mm 0 mps 659 mmHg 94%
    05:00 +17°C° 0.1 mm 0 mps 659 mmHg 93%
    06:00 +18°C° 0 mm 0 mps 660 mmHg 92%
    07:00 +19°C° 0 mm 0 mps 661 mmHg 90%
    08:00 +20°C° 0 mm 0 mps 661 mmHg 88%
    09:00 +22°C° 0 mm 0 mps 662 mmHg 80%
    10:00 +26°C° 0 mm 1 mps 662 mmHg 73%
    11:00 +27°C° 0 mm 1 mps 662 mmHg 66%
    12:00 +27°C° 0.8 mm 1 mps 662 mmHg 71%
    13:00 +26°C° 0.8 mm 1 mps 661 mmHg 76%
    14:00 +26°C° 0.8 mm 1 mps 660 mmHg 82%
    15:00 +25°C° 0.6 mm 1 mps 660 mmHg 85%
    16:00 +24°C° 0.6 mm 1 mps 660 mmHg 89%
    17:00 +23°C° 0.6 mm 1 mps 659 mmHg 93%
    18:00 +22°C° 0.2 mm 1 mps 660 mmHg 94%
    19:00 +21°C° 0.2 mm 1 mps 660 mmHg 96%
    20:00 +20°C° 0.2 mm 1 mps 660 mmHg 98%
    21:00 +20°C° 0 mm 1 mps 660 mmHg 97%
    22:00 +20°C° 0 mm 1 mps 660 mmHg 97%
    23:00 +20°C° 0 mm 1 mps 660 mmHg 97%

    24 September, Tuesday

    Time Temperature Precipitation Wind Pressure Humidity
    00:00 +19°C° 0.1 mm 1 mps 660 mmHg 97%
    01:00 +19°C° 0.1 mm 1 mps 659 mmHg 96%
    02:00 +18°C° 0.1 mm 1 mps 659 mmHg 96%
    03:00 +18°C° 0.1 mm 1 mps 659 mmHg 95%
    04:00 +18°C° 0.1 mm 1 mps 659 mmHg 95%
    05:00 +18°C° 0.1 mm 1 mps 659 mmHg 94%
    06:00 +20°C° 0 mm 1 mps 660 mmHg 90%
    07:00 +19°C° 0 mm 0 mps 661 mmHg 87%
    08:00 +21°C° 0 mm 0 mps 661 mmHg 83%
    09:00 +22°C° 0.1 mm 0 mps 661 mmHg 78%
    10:00 +26°C° 0.1 mm 1 mps 662 mmHg 72%
    11:00 +27°C° 0.1 mm 1 mps 662 mmHg 66%
    12:00 +27°C° 0.8 mm 1 mps 661 mmHg 71%
    13:00 +26°C° 0.8 mm 1 mps 660 mmHg 75%
    14:00 +26°C° 0.8 mm 1 mps 659 mmHg 80%
    15:00 +25°C° 0.9 mm 1 mps 659 mmHg 84%
    16:00 +24°C° 0.9 mm 1 mps 659 mmHg 88%
    17:00 +23°C° 0.9 mm 1 mps 659 mmHg 92%
    18:00 +22°C° 0.4 mm 1 mps 659 mmHg 94%
    19:00 +21°C° 0.4 mm 1 mps 659 mmHg 96%
    20:00 +21°C° 0.4 mm 1 mps 659 mmHg 98%
    21:00 +20°C° 0.4 mm 1 mps 659 mmHg 98%
    22:00 +20°C° 0.4 mm 1 mps 659 mmHg 97%
    23:00 +19°C° 0.4 mm 1 mps 659 mmHg 97%
    Show more